Regional Weather Roundup
Issued by NWS

Home | Current Version | Previous Version | Graphics & Text | Print | Product List | Glossary On
Versions: 1 2 3 4 5 6 7 8 9 10 11 12 13 14 15 16 17 18 19 20 21 22 23 24 25 26 27 28 29 30 31 32 33 34 35 36 37 38 39 40 41 42 43 44 45 46 47 48 49 50
581
ASUS45 KBOI 171610
RWRID

IDAHO REGIONAL WEATHER ROUNDUP
NATIONAL WEATHER SERVICE BOISE ID
1000 AM MDT TUE OCT 17 2017

NOTE: "FAIR" INDICATES FEW OR NO CLOUDS BELOW 12000 FEET
WITH NO SIGNIFICANT WEATHER AND/OR OBSTRUCTIONS TO VISIBILITY

IDZ012-014-171700-
SOUTHWEST IDAHO


CITY           SKY/WX    TMP DP  RH WIND       PRES   REMARKS
BOISE          PTSUNNY   46  32  58 N3        30.18R
CALDWELL       PTSUNNY   41  30  65 CALM      30.20R
MOUNTAIN HOME  PTSUNNY   43  26  51 SE12      30.18F
$$

IDZ016-017-171700-
SOUTHCENTRAL IDAHO


CITY           SKY/WX    TMP DP  RH WIND       PRES   REMARKS
BURLEY         SUNNY     41  29  62 NE6       30.22S
JEROME         MOSUNNY   44  28  53 NE18      30.21F
TWIN FALLS     SUNNY     41  28  60 E6        30.21S
$$

IDZ019>023-171700-
SOUTHEAST IDAHO


CITY           SKY/WX    TMP DP  RH WIND       PRES   REMARKS
IDAHO FALLS    CLOUDY    35  30  82 N7        30.28F WCI  29
POCATELLO      CLOUDY    40  32  73 NW7       30.27S
REXBURG        SUNNY     35  27  72 NE3       30.28F
$$

IDZ006-010-011-018-031-032-171700-
CENTRAL IDAHO MOUNTAINS


CITY           SKY/WX    TMP DP  RH WIND       PRES   REMARKS
MCCALL         MOSUNNY   33  29  85 CALM      30.18F
HAILEY         MOSUNNY   41  21  45 NW12      30.29S
STANLEY          N/A     28  23  81 CALM      30.30F
SALMON         SUNNY     33  28  81 CALM      30.23F
CHALLIS        SUNNY     39  26  59 CALM      30.25F
$$

IDZ002-004-006-007-026-171700-
NORTHERN IDAHO


CITY           SKY/WX    TMP DP  RH WIND       PRES   REMARKS
LEWISTON       MOSUNNY   50  37  61 NE6       29.99F
LOWELL           N/A     37  36  96 N6        30.12F WCI  32
COEUR D`ALENE  SUNNY     51  35  54 S9        29.92F
MULLAN PASS    SUNNY     45  23  42 VRB7G21   30.00F
$$




USA.gov is the U.S. government's official web portal to all federal, state and local government web resources and services.